This is the latest recevied weather packets stored in our database for station/object OM5ZU-10. If no packets are shown the sender has not sent any weather packets the latest 10 day(s).
| Time | Temp. | Humidity | Pressure | Rain* | Wind** | Luminosity | Snow |
|---|---|---|---|---|---|---|---|
| 1788163503 | 30° C | 41% | 1014.8 hPa | - | - | - | - |
| 1788162603 | 30° C | 40% | 1014.9 hPa | - | - | - | - |
| 1788161703 | 29.44° C | 41% | 1014.9 hPa | - | - | - | - |
| 1788160803 | 28.33° C | 43% | 1014.9 hPa | - | - | - | - |
| 1788159903 | 26.67° C | 44% | 1014.9 hPa | - | - | - | - |
| 1788159003 | 26.67° C | 44% | 1014.9 hPa | - | - | - | - |
| 1788158102 | 27.78° C | 43% | 1015 hPa | - | - | - | - |
| 1788157202 | 27.22° C | 46% | 1014.9 hPa | - | - | - | - |
| 1788156302 | 25.56° C | 46% | 1014.8 hPa | - | - | - | - |
| 1788155402 | 25° C | 49% | 1015 hPa | - | - | - | - |
| 1788154502 | 22.78° C | 50% | 1014.9 hPa | - | - | - | - |
| 1788153602 | 22.22° C | 54% | 1015 hPa | - | - | - | - |
| 1788152702 | 20.56° C | 59% | 1015.1 hPa | - | - | - | - |
| 1788151801 | 16.67° C | 69% | 1015 hPa | - | - | - | - |
| 1788150901 | 14.44° C | 78% | 1015 hPa | - | - | - | - |
| 1788150001 | 13.89° C | 78% | 1014.9 hPa | - | - | - | - |
| 1788149101 | 13.89° C | 79% | 1014.7 hPa | - | - | - | - |
| 1788148201 | 13.89° C | 80% | 1014.7 hPa | - | - | - | - |
| 1788147301 | 14.44° C | 77% | 1014.9 hPa | - | - | - | - |
| 1788146400 | 15° C | 75% | 1014.7 hPa | - | - | - | - |
| 1788145500 | 15° C | 77% | 1014.8 hPa | - | - | - | - |
| 1788144600 | 15.56° C | 72% | 1014.7 hPa | - | - | - | - |
| 1788143700 | 15° C | 77% | 1014.9 hPa | - | - | - | - |
| 1788142800 | 16.11° C | 70% | 1015.1 hPa | - | - | - | - |
| 1788141900 | 14.44° C | 80% | 1015 hPa | - | - | - | - |
* Rain since midnight (hover to see other rain measurements)
** Current wind speed in m/s (hover to see current wind gust speed)